Weather History for Visalia, CA

Change the Weather History Date:

Wednesday, August 21, 2013

  Actual Average Record
Temperature  
Mean Temperature 80 °F -  
Max Temperature 96 °F 90 °F 112 °F (1950)
Min Temperature 64 °F 61 °F 51 °F (1959)
Cooling Degree Days 15    
Growing Degree Days 30 (Base 50)    
Moisture  
Dew Point 54 °F    
Average Humidity 45    
Maximum Humidity 73    
Minimum Humidity 17    
Precipitation  
Precipitation 0.00 in - - ()
Sea Level Pressure  
Sea Level Pressure 29.82 in    
Wind  
Wind Speed 3 mph (WNW)    
Max Wind Speed 10 mph    
Max Gust Speed -    
Visibility 10 miles    
Events      
Averages and records for this station are not official NWS values.
T = Trace of Precipitation, MM = Missing Value Source: NWS Daily Summary

Daily Weather History Graph

Daily Weather History Graph

Search for Another Location

Airport:

Trip Planner

Search our weather history database for the weather conditions in past years. The results will help you decide how hot, cold, wet, or windy it might be!

Date:

Astronomy

Aug. 21, 2013 Rise Set
Actual Time 6:20 AM PDT 7:39 PM PDT
Civil Twilight 5:53 AM PDT 8:06 PM PDT
Nautical Twilight 5:21 AM PDT 8:38 PM PDT
Astronomical Twilight 4:47 AM PDT 9:12 PM PDT
Moon 7:55 PM PDT (8/21) 7:03 AM PDT (8/21)
Length of Visible Light 14h 13m
Length of Day
13h 19m
Full, 99% of the Moon is Illuminated
Aug 21
Full
Aug 28
Last Quarter
Sep 5
New
Sep 12
First Quarter
Sep 19
Full

Hourly Weather History & Observations

Time (PDT) Temp. Heat Index Dew Point Humidity Pressure Visibility Wind Dir Wind Speed Gust Speed Precip Events Conditions
12:15 AM 75.2 °F - 59.0 °F 57% 29.81 in 10.0 mi Calm Calm - N/A   Clear
12:35 AM 71.6 °F - 60.8 °F 69% 29.82 in 10.0 mi Calm Calm - N/A   Clear
12:55 AM 71.6 °F - 59.0 °F 64% 29.82 in 10.0 mi South 3.5 mph - N/A   Clear
1:15 AM 71.6 °F - 57.2 °F 60% 29.82 in 10.0 mi Calm Calm - N/A   Clear
1:35 AM 71.6 °F - 57.2 °F 60% 29.82 in 10.0 mi ESE 3.5 mph - N/A   Clear
1:55 AM 71.6 °F - 57.2 °F 60% 29.82 in 10.0 mi Calm Calm - N/A   Clear
2:15 AM 73.4 °F - 60.8 °F 65% 29.82 in 10.0 mi Calm Calm - N/A   Clear
2:35 AM 71.6 °F - 60.8 °F 69% 29.82 in 10.0 mi West 5.8 mph - N/A   Clear
2:55 AM 71.6 °F - 57.2 °F 60% 29.82 in 10.0 mi Calm Calm - N/A   Clear
3:15 AM 73.4 °F - 57.2 °F 57% 29.82 in 10.0 mi Calm Calm - N/A   Clear
3:35 AM 71.6 °F - 60.8 °F 69% 29.82 in 10.0 mi Calm Calm - N/A   Clear
3:55 AM 69.8 °F - 57.2 °F 64% 29.82 in 10.0 mi Calm Calm - N/A   Clear
4:15 AM 69.8 °F - 59.0 °F 68% 29.82 in 10.0 mi Calm Calm - N/A   Clear
4:35 AM 69.8 °F - 57.2 °F 64% 29.82 in 10.0 mi Calm Calm - N/A   Clear
4:55 AM 66.2 °F - 57.2 °F 73% 29.82 in 10.0 mi Calm Calm - N/A   Clear
5:15 AM 66.2 °F - 57.2 °F 73% 29.83 in 10.0 mi West 3.5 mph - N/A   Clear
5:35 AM 68.0 °F - 59.0 °F 73% 29.84 in 10.0 mi WNW 6.9 mph - N/A   Clear
5:55 AM 66.2 °F - 57.2 °F 73% 29.84 in 10.0 mi WNW 4.6 mph - N/A   Clear
6:15 AM 66.2 °F - 57.2 °F 73% 29.85 in 10.0 mi WNW 3.5 mph - N/A   Clear
6:35 AM 66.2 °F - 57.2 °F 73% 29.85 in 10.0 mi West 4.6 mph - N/A   Clear
6:55 AM 64.4 °F - 55.4 °F 73% 29.85 in 10.0 mi West 4.6 mph - N/A   Clear
7:15 AM 66.2 °F - 55.4 °F 68% 29.86 in 10.0 mi Calm Calm - N/A   Clear
7:35 AM 66.2 °F - 57.2 °F 73% 29.87 in 10.0 mi WNW 4.6 mph - N/A   Clear
7:55 AM 69.8 °F - 55.4 °F 60% 29.87 in 10.0 mi NW 5.8 mph - N/A   Clear
8:15 AM 69.8 °F - 53.6 °F 56% 29.87 in 10.0 mi WNW 4.6 mph - N/A   Clear
8:35 AM 71.6 °F - 55.4 °F 57% 29.88 in 9.0 mi Calm Calm - N/A   Clear
8:55 AM 71.6 °F - 55.4 °F 57% 29.88 in 8.0 mi Calm Calm - N/A   Clear
9:15 AM 73.4 °F - 57.2 °F 57% 29.88 in 10.0 mi Calm Calm - N/A   Clear
9:35 AM 75.2 °F - 57.2 °F 53% 29.88 in 9.0 mi West 3.5 mph - N/A   Clear
9:55 AM 77.0 °F - 57.2 °F 50% 29.88 in 10.0 mi Calm Calm - N/A   Clear
10:15 AM 77.0 °F - 57.2 °F 50% 29.88 in 10.0 mi Calm Calm - N/A   Clear
10:35 AM 78.8 °F - 57.2 °F 47% 29.88 in 10.0 mi Calm Calm - N/A   Clear
10:55 AM 80.6 °F 80.8 °F 57.2 °F 45% 29.88 in 10.0 mi Calm Calm - N/A   Clear
11:15 AM 82.4 °F 82.5 °F 59.0 °F 45% 29.88 in 10.0 mi South 3.5 mph - N/A   Clear
11:35 AM 84.2 °F 83.8 °F 59.0 °F 42% 29.87 in 10.0 mi NW 3.5 mph - N/A   Clear
11:55 AM 86.0 °F 84.9 °F 57.2 °F 37% 29.86 in 10.0 mi NW 3.5 mph - N/A   Clear
12:15 PM 87.8 °F 87.1 °F 59.0 °F 38% 29.85 in 10.0 mi WNW 8.1 mph - N/A   Clear
12:35 PM 87.8 °F 87.6 °F 60.8 °F 40% 29.85 in 10.0 mi West 5.8 mph - N/A   Clear
12:55 PM 89.6 °F 89.5 °F 60.8 °F 38% 29.84 in 10.0 mi West 8.1 mph - N/A   Clear
1:15 PM 89.6 °F 88.9 °F 59.0 °F 36% 29.83 in 10.0 mi WNW 8.1 mph - N/A   Clear
1:35 PM 91.4 °F 89.9 °F 57.2 °F 31% 29.83 in 10.0 mi WNW 8.1 mph - N/A   Clear
1:55 PM 91.4 °F 89.9 °F 57.2 °F 31% 29.82 in 10.0 mi NNW 6.9 mph - N/A   Clear
2:15 PM 93.2 °F 91.9 °F 57.2 °F 30% 29.81 in 10.0 mi NNW 5.8 mph - N/A   Clear
2:35 PM 93.2 °F 91.9 °F 57.2 °F 30% 29.80 in 10.0 mi West 6.9 mph - N/A   Clear
2:55 PM 93.2 °F 91.9 °F 57.2 °F 30% 29.80 in 10.0 mi West 8.1 mph - N/A   Clear
3:15 PM 93.2 °F 91.9 °F 57.2 °F 30% 29.79 in 10.0 mi West 8.1 mph - N/A   Clear
3:35 PM 93.2 °F 91.3 °F 55.4 °F 28% 29.78 in 10.0 mi West 10.4 mph - N/A   Clear
3:55 PM 95.0 °F 92.7 °F 53.6 °F 25% 29.77 in 10.0 mi West 8.1 mph - N/A   Clear
4:15 PM 95.0 °F 93.0 °F 55.4 °F 26% 29.78 in 10.0 mi West 8.1 mph - N/A   Clear
4:35 PM 95.0 °F 92.7 °F 53.6 °F 25% 29.77 in 10.0 mi West 8.1 mph - N/A   Clear
4:55 PM 96.8 °F - 50.0 °F 20% 29.76 in 10.0 mi North 8.1 mph - N/A   Clear
5:15 PM 96.8 °F - 46.4 °F 18% 29.76 in 10.0 mi North 5.8 mph - N/A   Clear
5:35 PM 96.8 °F - 46.4 °F 18% 29.76 in 10.0 mi North 5.8 mph - N/A   Clear
5:55 PM 96.8 °F - 44.6 °F 17% 29.76 in 10.0 mi North 5.8 mph - N/A   Clear
6:15 PM 96.8 °F - 46.4 °F 18% 29.75 in 10.0 mi NNE 6.9 mph - N/A   Clear
6:35 PM 96.8 °F - 44.6 °F 17% 29.75 in 10.0 mi North 5.8 mph - N/A   Clear
6:55 PM 96.8 °F - 44.6 °F 17% 29.75 in 10.0 mi NNW 5.8 mph - N/A   Clear
7:15 PM 93.2 °F - 46.4 °F 20% 29.75 in 10.0 mi NNW 4.6 mph - N/A   Clear
7:35 PM 93.2 °F - 46.4 °F 20% 29.76 in 10.0 mi Calm Calm - N/A   Clear
7:55 PM 87.8 °F - 50.0 °F 27% 29.76 in 10.0 mi West 3.5 mph - N/A   Clear
8:15 PM 84.2 °F 83.0 °F 55.4 °F 37% 29.77 in 10.0 mi WNW 5.8 mph - N/A   Clear
8:35 PM 82.4 °F 81.7 °F 55.4 °F 39% 29.78 in 10.0 mi West 6.9 mph - N/A   Clear
8:55 PM 82.4 °F 81.4 °F 53.6 °F 37% 29.79 in 10.0 mi West 10.4 mph - N/A   Clear
9:15 PM 82.4 °F - 50.0 °F 32% 29.79 in 10.0 mi West 10.4 mph - N/A   Clear
9:35 PM 80.6 °F - 44.6 °F 28% 29.80 in 10.0 mi West 8.1 mph - N/A   Clear
9:55 PM 80.6 °F - 42.8 °F 26% 29.81 in 10.0 mi West 5.8 mph - N/A   Clear
10:15 PM 78.8 °F - 44.6 °F 30% 29.81 in 10.0 mi West 5.8 mph - N/A   Clear
10:35 PM 80.6 °F - 44.6 °F 28% 29.81 in 10.0 mi West 3.5 mph - N/A   Clear
10:55 PM 78.8 °F - 44.6 °F 30% 29.82 in 10.0 mi Calm Calm - N/A   Clear
11:15 PM 78.8 °F - 42.8 °F 28% 29.82 in 10.0 mi Calm Calm - N/A   Clear
11:35 PM 75.2 °F - 44.6 °F 34% 29.83 in 10.0 mi NE 3.5 mph - N/A   Clear
11:55 PM 75.2 °F - 46.4 °F 36% 29.83 in 10.0 mi Calm Calm - N/A   Clear